User: anonymous   Login
Location: Pilipovskiye Korichintsy
(49.1833°N, 27.4667°E)
Time: 20:56:24
(UTC+00:00)
Language:

ARIANE 5 R/B - Orbit

View from above orbital plane
View from above orbital plane
View from above satellite
View from above satellite

Ground track
Ground track

The orbit data is extracted from the following two-line orbital elements,

1 27387U 02009B   20269.88706192 +.00000002 +00000-0 +16070-4 0  9998
2 27387 098.6190 223.4954 0032291 181.3879 178.7223 14.36000672973249
Epoch (UTC): 25 September 2020 21:17:22
Eccentricity: 0.0032291
inclination: 98.6190°
perigee height: 748 km
apogee height: 795 km
right ascension of ascending node: 223.4954°
argument of perigee: 181.3879°
revolutions per day: 14.36000672
mean anomaly at epoch: 178.7223°
orbit number at epoch: 97324

The dashed part of the orbit path shows where the satellite is in the earth's shadow,  

DLR